Flag for Greece Weather past 2 weeks in Rhodes, Rhodes, Greece

Now
73 °F

Sunny.


Feels Like: 77 °F
Forecast: 68 / 72 °F
Wind: 7 mph from Southwest

Location: Rhodes Airport

Current Time: Oct 21, 2014 at 5:42:52 PM

Latest Report: Oct 21, 2014 at 4:50 PM


Visibility: 10 mi

Pressure: 29.92 "Hg

Humidity: 47%

Dew point: 52 °F

Location of RhodesLocation

Historic Weather in Rhodes — Graph

°F

Rhodes temperature yesterday

Maximum temperature yesterday: 73 °F (at 11:50 AM)
Minimum temperature yesterday: 68 °F (at 8:50 AM)
Average temperature yesterday: 71 °F

Past Weeks' High & Low Weather Summary

 TemperatureHumidityPressure
High82 °F (Oct 7, 2:50 PM)88% (Oct 8, 10:50 PM)30.09 "Hg (Oct 8, 10:50 PM)
Low64 °F (Oct 21, 5:50 AM)25% (Oct 20, 11:50 AM)29.89 "Hg (Oct 9, 2:50 AM)
Average72 °F70%29.95 "Hg
* Reported Oct 6 4:20 PM — Oct 21 4:20 PM, Rhodes, Weather by CustomWeather, © 2014

Note: Actual official high and low records may vary slightly from our data, if they occured in-between our weather recording intervals... More about our weather records

Advertising

Rhodes weather history for previous 24 hours

 ConditionsComfort  
Time TempWeatherWind HumidityBarometerVisibility
4:20 PM
Oct 21
73 °FSunny.9 mph47%29.92 "Hg10 mi
3:50 PM73 °FSunny.8 mph47%29.92 "Hg10 mi
3:20 PM73 °FSunny.13 mph47%29.92 "Hg10 mi
2:50 PM73 °FSunny.7 mph47%29.92 "Hg10 mi
2:20 PM73 °FSunny.7 mph47%29.92 "Hg10 mi
1:50 PM73 °FSunny.5 mph47%29.92 "Hg10 mi
1:20 PM73 °FSunny.5 mph47%29.95 "Hg10 mi
12:50 PM73 °FSunny.5 mph47%29.95 "Hg10 mi
12:20 PM73 °FSunny.5 mph47%29.95 "Hg10 mi
11:50 AM73 °FSunny.5 mph47%29.95 "Hg10 mi
11:20 AM73 °FSunny.5 mph47%29.95 "Hg10 mi
10:50 AM72 °FSunny.6 mph50%29.95 "Hg10 mi
10:20 AM68 °FSunny.6 mph60%29.95 "Hg10 mi
9:50 AM66 °FSunny.3 mph64%29.95 "Hg10 mi
9:20 AM66 °FSunny.No wind64%29.95 "Hg10 mi
8:50 AM66 °FSunny.No wind64%29.92 "Hg10 mi
8:20 AM64 °FSunny.No wind60%29.92 "Hg10 mi
7:50 AM64 °FClear.No wind60%29.92 "Hg10 mi
7:20 AM64 °FClear.No wind60%29.89 "Hg10 mi
6:50 AM64 °FClear.No wind60%29.89 "Hg10 mi
5:50 AM64 °FClear.No wind60%29.89 "Hg10 mi
5:20 AM66 °FClear.No wind52%29.89 "Hg10 mi
4:50 AM66 °FClear.No wind52%29.89 "Hg10 mi
4:20 AM66 °FClear.5 mph56%29.89 "Hg10 mi
3:20 AM66 °FClear.3 mph52%29.89 "Hg10 mi
2:50 AM66 °FClear.3 mph52%29.89 "Hg10 mi
2:20 AM66 °FClear.7 mph49%29.89 "Hg10 mi
1:50 AM66 °FClear.7 mph49%29.89 "Hg10 mi
1:20 AM68 °FClear.7 mph46%29.92 "Hg10 mi
12:50 AM68 °FClear.7 mph46%29.92 "Hg10 mi
12:20 AM68 °FClear.9 mph43%29.92 "Hg10 mi
11:50 PM
Oct 20
68 °FClear.9 mph43%29.92 "Hg10 mi
11:20 PM68 °FClear.10 mph46%29.92 "Hg10 mi
10:50 PM68 °FClear.10 mph46%29.92 "Hg10 mi
10:20 PM68 °FClear.9 mph49%29.92 "Hg10 mi
9:50 PM68 °FClear.9 mph49%29.92 "Hg10 mi
9:20 PM68 °FClear.8 mph49%29.92 "Hg10 mi
8:50 PM68 °FClear.9 mph49%29.92 "Hg10 mi
8:20 PM70 °FClear.8 mph46%29.92 "Hg10 mi
7:50 PM70 °FClear.9 mph46%29.92 "Hg10 mi
7:20 PM70 °FSunny.9 mph46%29.92 "Hg10 mi
6:50 PM70 °FSunny.8 mph46%29.92 "Hg10 mi
6:20 PM72 °FSunny.7 mph41%29.92 "Hg10 mi
5:50 PM72 °FSunny.10 mph41%29.92 "Hg10 mi
5:20 PM72 °FSunny.10 mph36%29.92 "Hg10 mi
Weather by CustomWeather, © 2014

See weather overviewHow to use our weather pages